IZ1WIY-2 Weather Reports


time (UTC)temp
F
wind
direction
speed
knots
gust
knots
rain 1hr
in
rain 24hr
in
rain mn
in
humidity
%
barometer
mb
20260506165503 64 212 4.3 7.0 0.00 0.71 0.71 76 1009.9
20260506165003 65 213 5.2 7.0 0.00 0.71 0.71 76 1010.0
20260506164503 65 210 6.1 8.7 0.00 0.71 0.71 77 1009.9
20260506164003 65 208 6.1 8.7 0.00 0.71 0.71 78 1010.0
20260506163503 65 210 5.2 9.6 0.00 0.71 0.71 78 1010.0
20260506163003 65 209 4.3 9.6 0.00 0.71 0.71 79 1010.0
20260506162503 65 209 4.3 7.8 0.00 0.71 0.71 79 1009.9
20260506162003 65 208 4.3 6.1 0.00 0.71 0.71 79 1010.0
20260506161503 64 205 3.5 6.1 0.00 0.71 0.71 79 1009.9
20260506161003 65 210 3.5 6.1 0.00 0.71 0.71 79 1009.9
20260506160503 65 212 3.5 6.1 0.00 0.71 0.71 79 1010.0
20260506160004 65 212 4.3 7.0 0.00 0.71 0.71 80 1009.9
20260506155503 65 214 4.3 7.0 0.00 0.71 0.71 80 1009.9
20260506155003 65 214 5.2 7.0 0.00 0.71 0.71 80 1010.0
20260506154503 65 213 5.2 7.8 0.00 0.71 0.71 80 1009.9
20260506154003 65 213 5.2 7.8 0.00 0.71 0.71 80 1009.9
20260506153503 65 214 5.2 7.8 0.00 0.71 0.71 80 1009.9
20260506153003 66 212 5.2 7.0 0.00 0.71 0.71 80 1009.9
20260506152503 65 212 4.3 7.0 0.00 0.71 0.71 80 1009.9
20260506152003 65 215 4.3 7.0 0.00 0.71 0.71 80 1009.8
20260506151503 66 215 4.3 7.0 0.00 0.71 0.71 80 1009.8
20260506151003 66 212 4.3 7.0 0.00 0.71 0.71 79 1009.8
20260506150503 66 212 4.3 7.0 0.00 0.71 0.71 80 1009.8
20260506150003 66 214 4.3 7.0 0.00 0.71 0.71 80 1009.8
20260506145503 66 214 4.3 6.1 0.00 0.71 0.71 80 1009.8
20260506145003 66 212 4.3 6.1 0.00 0.71 0.71 80 1009.8
20260506144503 66 211 4.3 6.1 0.00 0.71 0.71 79 1009.7
20260506144003 67 212 4.3 6.1 0.00 0.71 0.71 80 1009.7
20260506143503 66 210 4.3 6.1 0.00 0.71 0.71 80 1009.7
20260506143003 66 208 4.3 6.1 0.00 0.71 0.71 80 1009.7
20260506142503 66 208 4.3 6.1 0.00 0.71 0.71 80 1009.7
20260506142003 66 208 4.3 6.1 0.00 0.71 0.71 80 1009.6
20260506141506 66 211 4.3 6.1 0.00 0.71 0.71 80 1009.6
20260506141003 66 211 4.3 6.1 0.00 0.71 0.71 80 1009.7
20260506140503 66 210 5.2 6.1 0.00 0.71 0.71 81 1009.6
20260506140004 66 212 5.2 7.0 0.00 0.71 0.71 81 1009.7
20260506135503 66 213 5.2 7.0 0.00 0.71 0.71 81 1009.7
20260506135003 66 214 5.2 7.0 0.00 0.71 0.71 81 1009.8
20260506134503 66 212 4.3 7.0 0.00 0.71 0.71 81 1009.8
20260506134003 66 211 3.5 7.0 0.00 0.71 0.71 81 1009.8
20260506133503 66 214 4.3 5.2 0.00 0.71 0.71 81 1009.9
20260506133003 66 213 4.3 7.0 0.00 0.71 0.71 81 1009.9
20260506132503 66 211 4.3 7.0 0.00 0.71 0.71 81 1010.0
20260506132003 67 211 4.3 7.0 0.00 0.71 0.71 81 1010.0
20260506131503 67 211 5.2 7.0 0.00 0.71 0.71 81 1010.0
20260506131003 66 210 5.2 7.8 0.00 0.71 0.71 81 1010.0
20260506130503 66 209 6.1 7.8 0.00 0.71 0.71 81 1010.0
20260506130004 65 209 6.1 7.8 0.00 0.71 0.71 81 1010.1
20260506125503 65 209 5.2 7.8 0.00 0.71 0.71 81 1010.0
20260506125003 65 209 5.2 9.6 0.00 0.71 0.71 81 1010.1
20260506124503 65 213 5.2 9.6 0.00 0.71 0.71 81 1010.1
20260506124003 65 211 5.2 7.0 0.00 0.71 0.71 80 1010.1
20260506123503 65 209 5.2 7.8 0.00 0.71 0.71 80 1010.0
20260506123003 65 210 4.3 7.8 0.00 0.71 0.71 79 1010.0
20260506122503 66 210 4.3 6.1 0.00 0.71 0.71 79 1010.0
20260506122003 66 210 5.2 7.0 0.00 0.71 0.71 78 1010.0
20260506121503 66 210 5.2 7.8 0.00 0.71 0.71 79 1010.0
20260506121003 66 210 5.2 7.8 0.00 0.71 0.71 80 1010.0
20260506120503 66 209 4.3 7.0 0.00 0.71 0.71 82 1010.0
20260506120004 65 208 4.3 7.0 0.00 0.71 0.71 82 1009.9
20260506115503 65 209 4.3 7.8 0.00 0.71 0.71 82 1009.9
20260506115003 66 209 4.3 7.8 0.00 0.71 0.71 82 1009.9
20260506114503 66 207 4.3 7.0 0.00 0.71 0.71 82 1009.9
20260506114003 65 207 4.3 7.0 0.00 0.71 0.71 82 1009.8
20260506113503 66 208 5.2 7.0 0.00 0.71 0.71 82 1009.9
20260506113003 66 209 6.1 8.7 0.00 0.71 0.71 82 1009.9
20260506112503 65 208 6.1 9.6 0.00 0.71 0.71 82 1009.9
20260506112003 65 207 6.1 9.6 0.00 0.71 0.71 83 1009.9
20260506111503 65 209 7.0 8.7 0.00 0.71 0.71 83 1009.8
20260506111003 65 213 7.0 9.6 0.00 0.71 0.71 83 1009.9
20260506110503 65 216 7.8 9.6 0.00 0.71 0.71 83 1009.8
20260506110004 65 219 7.8 11.3 0.00 0.71 0.71 83 1009.8
20260506105503 65 214 7.8 12.2 0.00 0.71 0.71 83 1009.8
20260506105003 65 207 7.8 12.2 0.00 0.71 0.71 83 1009.8
20260506104503 65 208 8.7 11.3 0.00 0.71 0.71 83 1009.7
20260506104003 65 211 8.7 11.3 0.00 0.71 0.71 83 1009.8
20260506103503 65 213 8.7 13.0 0.00 0.71 0.71 83 1009.8
20260506103003 65 210 9.6 13.0 0.00 0.71 0.71 83 1009.8
20260506102503 65 208 9.6 13.0 0.00 0.71 0.71 83 1009.8
20260506102003 65 213 9.6 13.0 0.00 0.71 0.71 84 1009.8
20260506101503 65 212 9.6 14.8 0.00 0.71 0.71 84 1009.8
20260506101003 65 208 9.6 14.8 0.00 0.71 0.71 84 1009.7
20260506100503 65 208 9.6 13.9 0.00 0.71 0.71 84 1009.7
20260506100004 65 209 9.6 13.0 0.00 0.71 0.71 84 1009.7
20260506095503 65 213 9.6 13.0 0.00 0.71 0.71 84 1009.6
20260506095003 65 213 10.4 14.8 0.00 0.71 0.71 84 1009.7
20260506094503 65 212 11.3 15.6 0.00 0.71 0.71 85 1009.6
20260506094004 65 212 11.3 15.6 0.00 0.71 0.71 85 1009.5
20260506093503 65 208 10.4 16.5 0.00 0.71 0.71 85 1009.5
20260506093003 65 205 9.6 16.5 0.00 0.71 0.71 85 1009.4
20260506092503 65 204 9.6 13.9 0.00 0.71 0.71 85 1009.3
20260506092004 65 204 9.6 13.9 0.00 0.71 0.71 85 1009.2
20260506091503 65 204 9.6 14.8 0.00 0.71 0.71 85 1009.1
20260506091003 65 203 9.6 18.2 0.00 0.71 0.71 85 1009.2
20260506090504 65 201 9.6 18.2 0.00 0.71 0.71 85 1009.2
20260506090004 65 205 9.6 15.6 0.00 0.71 0.71 85 1009.2
20260506085503 65 208 9.6 15.6 0.00 0.71 0.71 85 1009.0
20260506085003 65 207 9.6 14.8 0.00 0.71 0.71 86 1009.2
20260506084503 65 207 9.6 13.9 0.00 0.71 0.71 86 1009.1
20260506084003 65 208 10.4 13.9 0.00 0.71 0.71 86 1009.0
20260506083503 65 207 11.3 17.4 0.00 0.71 0.71 86 1009.0
20260506083003 65 205 10.4 18.2 0.00 0.71 0.71 86 1008.9
20260506082503 64 204 8.7 21.7 0.00 0.71 0.71 86 1009.0
20260506082003 64 201 9.6 21.7 0.01 0.71 0.71 87 1008.8
20260506081503 65 197 10.4 14.8 0.01 0.71 0.71 87 1008.5
20260506081003 64 194 10.4 16.5 0.01 0.71 0.71 87 1008.5
20260506080503 64 199 10.4 16.5 0.01 0.71 0.71 87 1008.6
20260506073503 65 226 11.3 17.4 0.01 0.71 0.71 87 1008.5
20260506073003 64 230 10.4 17.4 0.01 0.71 0.71 87 1008.5
20260506072503 65 226 9.6 17.4 0.01 0.71 0.71 87 1008.6
20260506072003 65 228 9.6 16.5 0.00 0.70 0.70 86 1008.5
20260506071503 65 226 10.4 17.4 0.00 0.70 0.70 86 1008.5
20260506071003 65 220 10.4 17.4 0.00 0.70 0.70 87 1008.4
20260506070503 65 221 9.6 19.1 0.00 0.70 0.70 86 1008.6
20260506062503 64 239 6.1 11.3 0.14 0.72 0.70 86 1008.5
20260506061503 64 237 7.0 12.2 0.25 0.73 0.70 86 1008.5
20260506061003 64 234 7.8 13.9 0.39 0.73 0.70 86 1008.4
20260506060503 64 234 8.7 13.9 0.43 0.73 0.70 86 1008.2
20260506051003 63 249 3.5 10.4 0.08 0.50 0.31 86 1008.3
20260506050503 63 250 4.3 12.2 0.04 0.47 0.27 86 1008.3
20260506045003 63 230 7.0 14.8 0.06 0.52 0.27 86 1008.2
20260506044503 63 235 7.8 14.8 0.03 0.51 0.24 86 1008.1
20260506044003 64 244 8.7 13.9 0.05 0.52 0.23 86 1008.2
20260506043503 64 239 8.7 17.4 0.05 0.55 0.23 86 1008.1
20260506043003 64 238 8.7 17.4 0.05 0.56 0.23 86 1008.2
20260506042503 64 242 7.8 14.8 0.05 0.57 0.23 86 1008.0
20260506042003 64 240 7.0 14.8 0.05 0.58 0.23 86 1008.1
20260506041503 64 238 6.1 13.9 0.05 0.61 0.23 86 1008.0
20260506041003 64 237 7.0 13.0 0.05 0.61 0.23 86 1008.1
20260506040503 64 225 8.7 11.3 0.05 0.61 0.23 86 1008.2
20260506035503 63 208 7.0 17.4 0.03 0.60 0.22 86 1008.4
20260506035004 64 207 6.1 17.4 0.03 0.61 0.21 86 1008.4
20260506034503 64 216 7.0 10.4 0.03 0.61 0.21 86 1008.5
20260506034003 64 219 8.7 11.3 0.00 0.59 0.18 85 1008.5
20260506033503 64 221 8.7 13.9 0.00 0.60 0.18 86 1008.5
20260506033004 64 229 9.6 15.6 0.00 0.60 0.18 86 1008.6
20260506032503 64 229 10.4 15.6 0.00 0.60 0.18 86 1008.4
20260506032003 64 225 9.6 17.4 0.00 0.60 0.18 86 1008.5
20260506031503 64 226 7.8 17.4 0.00 0.60 0.18 86 1008.6
20260506031003 64 230 7.8 13.0 0.00 0.60 0.18 86 1008.7
20260506030503 64 236 8.7 17.4 0.00 0.60 0.18 86 1008.6
20260506030004 64 232 6.1 17.4 0.01 0.60 0.18 86 1008.6
20260506025503 63 231 3.5 13.9 0.01 0.61 0.18 86 1008.7
20260506025003 63 231 1.7 12.2 0.02 0.61 0.18 86 1008.4
20260506024503 63 229 0.9 8.7 0.05 0.61 0.18 86 1008.5
20260506024003 62 217 0.0 7.8 0.05 0.62 0.18 86 1008.5
20260506023503 61 339 0.0 1.7 0.08 0.63 0.18 86 1008.6
20260506023003 61 332 0.0 1.7 0.09 0.64 0.18 85 1008.3
20260506022503 61 250 0.9 3.5 0.09 0.65 0.18 85 1008.5
20260506022003 61 305 0.9 3.5 0.13 0.67 0.18 85 1008.6
20260506021503 60 336 0.9 4.3 0.16 0.68 0.18 85 1008.5
20260506021003 60 335 0.9 4.3 0.16 0.69 0.18 85 1008.7
20260506020503 60 313 0.9 2.6 0.16 0.69 0.18 85 1008.8
20260506020004 60 315 0.9 3.5 0.15 0.70 0.17 85 1008.9
20260506015503 60 11 0.9 3.5 0.15 0.71 0.17 85 1009.1
20260506015003 60 12 0.9 3.5 0.14 0.72 0.17 85 1009.2
20260506014504 61 346 0.9 4.3 0.11 0.69 0.13 85 1009.3
20260506014003 61 344 0.0 4.3 0.11 0.70 0.13 85 1009.2
20260506013503 61 0 0.0 2.6 0.08 0.68 0.10 85 1009.4
20260506013003 61 0 0.0 0.9 0.07 0.68 0.09 85 1009.4
20260506012503 62 0 0.0 0.0 0.06 0.68 0.09 85 1009.5
20260506012003 61 0 0.0 0.0 0.02 0.65 0.05 85 1009.8
20260506011503 61 13 0.0 0.9 0.00 0.63 0.02 85 1009.5
20260506011003 61 7 0.9 2.6 0.00 0.64 0.02 85 1009.5
20260506010503 61 349 0.9 2.6 0.00 0.64 0.02 85 1009.6
20260506010003 61 355 0.9 2.6 0.00 0.65 0.02 85 1009.6
20260506005503 62 359 0.0 2.6 0.00 0.65 0.02 85 1009.7
20260506005003 62 301 0.9 2.6 0.00 0.66 0.02 85 1009.6
20260506004504 62 296 1.7 2.6 0.01 0.66 0.02 85 1009.7
20260506004003 62 221 2.6 5.2 0.01 0.67 0.02 84 1009.9
20260506003503 62 211 2.6 5.2 0.01 0.67 0.02 85 1010.0
20260506003003 62 203 1.7 7.0 0.01 0.67 0.02 85 1010.1
20260506002503 62 201 0.9 7.0 0.01 0.67 0.02 85 1010.0
20260506002003 62 209 0.9 3.5 0.02 0.67 0.02 85 1010.1
20260506001503 62 205 0.9 5.2 0.02 0.67 0.02 85 1009.9
20260506001003 63 218 0.9 5.2 0.02 0.67 0.02 85 1010.0
20260506000503 62 258 3.5 2.6 0.02 0.67 0.02 85 1010.0
20260506000003 62 237 6.1 11.3 0.02 0.67 0.02 85 1010.0
20260505235503 62 229 7.0 11.3 0.02 0.67 0.02 85 1010.3
20260505235003 63 213 7.0 10.4 0.02 0.67 0.02 85 1010.3
20260505234503 63 204 7.0 10.4 0.02 0.66 0.02 84 1010.5
20260505234003 63 204 6.1 11.3 0.02 0.66 0.02 84 1010.4
20260505233503 64 208 4.3 12.2 0.02 0.66 0.02 83 1010.4
20260505233003 65 213 2.6 12.2 0.02 0.66 0.02 83 1010.3
20260505232503 65 216 1.7 7.0 0.02 0.66 0.02 82 1010.4
20260505232003 65 226 1.7 5.2 0.01 0.65 0.01 82 1010.4
20260505231504 65 311 0.0 3.5 0.01 0.65 0.01 82 1010.4
20260505231003 64 0 0.0 3.5 0.01 0.65 0.01 81 1010.8
20260505230503 64 0 0.0 0.9 0.00 0.65 0.00 80 1010.8
20260505230004 64 0 0.0 0.9 0.00 0.65 0.00 80 1010.9
20260505225503 63 0 0.0 3.5 0.00 0.65 0.00 80 1011.0
20260505225003 63 351 0.0 3.5 0.00 0.65 0.00 80 1010.9
20260505224503 63 346 0.9 1.7 0.00 0.65 0.00 80 1011.2
20260505224003 63 344 0.9 2.6 0.00 0.65 0.00 81 1011.3
20260505223503 63 344 0.0 2.6 0.00 0.65 0.00 81 1011.4
20260505223003 63 0 0.0 2.6 0.00 0.65 0.00 81 1011.3
20260505222503 63 0 0.0 0.0 0.00 0.65 0.00 81 1011.5
20260505222003 63 0 0.0 0.0 0.00 0.65 0.00 81 1011.5
20260505221503 63 0 0.0 0.0 0.00 0.65 0.00 81 1011.6
20260505221003 62 0 0.0 0.0 0.00 0.65 0.00 81 1011.5
20260505220503 62 343 0.9 2.6 0.00 0.65 0.00 81 1011.5
20260505220008 62 347 0.9 5.2 0.00 0.65 0.00 81 1011.4
20260505215503 62 349 0.9 5.2 0.00 0.65 0.65 81 1011.4
20260505215003 62 8 0.9 3.5 0.00 0.65 0.65 82 1011.5
20260505214503 62 19 1.7 5.2 0.00 0.65 0.65 82 1011.6
20260505214003 62 19 2.6 7.0 0.00 0.65 0.65 82 1011.5
20260505213503 62 22 2.6 7.0 0.00 0.65 0.65 82 1011.8
20260505213003 62 30 2.6 4.3 0.00 0.65 0.65 82 1011.9
20260505212503 62 33 2.6 4.3 0.00 0.65 0.65 82 1011.9
20260505212003 62 26 1.7 4.3 0.00 0.65 0.65 82 1011.9
20260505211503 62 18 0.9 4.3 0.00 0.65 0.65 82 1011.9
20260505211003 62 20 1.7 4.3 0.00 0.65 0.65 82 1011.9
20260505210503 62 9 1.7 4.3 0.00 0.65 0.65 82 1011.9
20260505210003 62 9 1.7 5.2 0.00 0.65 0.65 82 1011.9
20260505205503 62 22 1.7 5.2 0.00 0.65 0.65 82 1011.9
20260505205003 62 18 1.7 5.2 0.00 0.65 0.65 82 1012.0
20260505204503 62 15 1.7 5.2 0.00 0.65 0.65 82 1012.1
20260505204003 62 24 1.7 4.3 0.00 0.65 0.65 82 1012.1
20260505203503 62 29 2.6 4.3 0.00 0.65 0.65 82 1012.1
20260505203003 61 34 3.5 6.1 0.00 0.65 0.65 82 1012.1
20260505202503 61 29 3.5 6.1 0.00 0.65 0.65 82 1012.2
20260505202003 61 26 2.6 6.1 0.00 0.65 0.65 82 1012.2
20260505201503 61 25 2.6 6.1 0.00 0.65 0.65 82 1012.3
20260505201003 61 20 2.6 4.3 0.00 0.65 0.65 82 1012.3
20260505200503 61 23 3.5 6.1 0.00 0.65 0.65 82 1012.3
20260505200004 62 29 3.5 6.1 0.00 0.65 0.65 82 1012.3
20260505195503 62 30 2.6 6.1 0.00 0.65 0.65 82 1012.3
20260505195003 62 31 2.6 5.2 0.00 0.65 0.65 82 1012.3
20260505194503 62 26 3.5 6.1 0.00 0.65 0.65 81 1012.3
20260505194003 62 25 3.5 6.1 0.00 0.65 0.65 81 1012.2
20260505193503 62 32 2.6 5.2 0.00 0.65 0.65 81 1012.2
20260505193003 63 31 1.7 5.2 0.00 0.65 0.65 81 1012.1
20260505192503 63 27 1.7 3.5 0.00 0.65 0.65 81 1012.0
20260505192003 63 30 1.7 3.5 0.00 0.65 0.65 81 1012.0
20260505191503 63 18 1.7 4.3 0.00 0.65 0.65 80 1012.0
20260505191003 64 333 1.7 4.3 0.00 0.65 0.65 80 1012.1
20260505190503 64 308 0.9 3.5 0.00 0.65 0.65 80 1011.9
20260505190004 64 297 0.0 2.6 0.00 0.65 0.65 80 1011.9
20260505185503 65 257 0.0 1.7 0.00 0.65 0.65 80 1011.9
20260505185003 65 256 0.9 1.7 0.00 0.65 0.65 80 1011.9
20260505184503 65 237 1.7 5.2 0.00 0.65 0.65 80 1011.8
20260505184003 65 238 2.6 5.2 0.00 0.65 0.65 80 1011.9
20260505183503 65 241 2.6 6.1 0.00 0.65 0.65 80 1012.0
20260505183003 65 239 2.6 6.1 0.00 0.65 0.65 80 1012.0
20260505182503 65 238 2.6 5.2 0.00 0.65 0.65 80 1011.9
20260505182003 65 224 3.5 5.2 0.00 0.65 0.65 80 1011.8
20260505181503 65 209 3.5 5.2 0.00 0.65 0.65 80 1011.8
20260505181003 65 203 4.3 6.1 0.00 0.65 0.65 80 1011.9
20260505180503 65 201 4.3 6.1 0.00 0.65 0.65 79 1011.8
20260505180003 65 197 4.3 7.8 0.00 0.65 0.65 79 1011.9
20260505175503 65 198 4.3 7.8 0.00 0.65 0.65 79 1012.0
20260505175003 65 200 4.3 7.8 0.00 0.65 0.65 79 1011.9
20260505174503 65 202 4.3 7.8 0.00 0.65 0.65 79 1011.9
20260505174003 65 201 5.2 7.8 0.00 0.65 0.65 80 1011.9
20260505173503 65 196 5.2 7.8 0.00 0.65 0.65 80 1011.9
20260505173003 65 198 6.1 9.6 0.00 0.65 0.65 80 1012.0
20260505172503 65 201 6.1 9.6 0.00 0.65 0.65 80 1011.9
20260505172003 66 201 6.1 9.6 0.00 0.65 0.65 80 1011.8
20260505171503 66 201 6.1 8.7 0.00 0.65 0.65 79 1011.9
20260505171003 66 203 6.1 9.6 0.00 0.65 0.65 79 1011.8
20260505170503 66 207 6.1 9.6 0.00 0.65 0.65 79 1011.8
20260505170003 66 214 6.1 9.6 0.00 0.65 0.65 79 1011.6